CZ-6A DEB

Satellite information

Favourite Embed

Satellite Type and Status

DEBRISIN ORBIT

Key statistics

Satellite CZ-6A DEB at a glance.

Uptime

909

Days in orbit

Revolutions

≈ 14.3

Per day

Orbit

SSO

Sun Synchronous Orbit

Inclination

98.8

Latest

Satellite identification and parameters

Extended collection of information and parameters for CZ-6A DEB.

Object identification

Identified? True

Debris? True

Object name: CZ-6A DEB

International designator: 2022-151BZ

Object number (NORAD): 54330

Object ID (CCSDS): 54330

Country: PEOPLES REPUBLIC OF CHINA (PRC)

Current information (Y/N): Y

RCS size: SMALL

Orbital parameters

Period: 100.944 minutes

Inclination: 98.7797 deg

SMA: 7181.492 km

Apoapsis: 843.868 km

Periapsis: 762.845 km

RAAN: 144.8988 deg

Eccentricy: 0.0056411

Argument of periapsis: 68.8566 deg

Mean anomaly: 291.863 deg

Mean motion: 14.265295 rev/day

Mean motion (dot): 0.0000364 rev/day2

B* drag term: 0.0015022 1/REarth

Two-line elements (TLE)

Creation date: May 8, 2025, 3:01 a.m.

Reference frame: TEME

Reference center: EARTH

Epoch: May 7, 2025, 12:08 p.m. UTC

TLE line 0: 0 CZ-6A DEB

TLE line 1: 1 54330U 22151BZ 25127.50615655 .00003640 00000-0 15022-2 0 9991

TLE line 2: 2 54330 98.7797 144.8988 0056411 68.8566 291.8630 14.26529500128332

Live tracking on map

Real-time ground track for satellite CZ-6A DEB.

In-orbit conjunctions

A list of the most updated potential collisions computed for object CZ-6A DEB.

Target Orbit TCA Probability of collision Miss distance Type
COSMOS 1486 LEO 2025-04-04 15:12:16 0.0003981203 914.0 (m) PAYLOAD
HAIYANG 1 SSO 2025-03-15 09:10:15 0.0002831101 898.0 (m) PAYLOAD
CZ-6A DEB LEO 2024-12-24 01:16:55 0.0001828347 898.0 (m) DEBRIS

Associated space launch

Chinese satellite reported for atmospheric/ocean/environmental/spatial parameter research purposes, details TBD.

CZ-6A DEB was lifted into orbit during the mission ‘Long March 6A | Yunhai 3’, on board a Long March 6A space rocket.

The launch took place on Nov. 11, 2022, 10:52 p.m. from Launch Complex 9A.

For more information about the launch, click the button.

Launch to space Long March 6A | Yunhai 3
Long March 6A | Yunhai 3

Agency: N/A

Status: Launch Successful

Launch date: Nov. 11, 2022, 10:52 p.m. UTC

Rocket: Long March 6A

Launch pad: Launch Complex 9A

Location: Taiyuan Satellite Launch Center, People's Republic of China

...

Latest news about this satellite

There are no fresh news available about this satellite. Check back as we update our databases every day.


Newsletter sign-up

Weekly statistics, charts and insights to help you stay on top of the space industry.